Location: ?????????
(41.2393°N, 22.9479°E)
Time: 22:52:03
(UTC+00:00)

Cosmos 1763 Rocket - Pass Details

Date: 17 November 2025
Orbit: 728 x 774 km, 74.0° (Epoch: 09 December)

Event Time Altitude Azimuth Distance (km) Brightness Sun altitude
Rises 15:49:00 0° 345° (NNW) 3,234 6.7 -8.1°
Reaches altitude 10° 15:51:28 10° 350° (N) 2,297 5.9 -8.6°
Maximum altitude 15:56:32 51° 67° (ENE) 943 3.6 -9.5°
Drops below altitude 10° 16:01:30 10° 143° (SE) 2,253 5.7 -10.4°
Sets 16:03:54 0° 148° (SSE) 3,165 6.5 -10.8°
